Kalispell, MT

6:32 AM MDT on October 24, 2017 (GMT -0600)
Glacier Park International

Weather History for KGPI - December, 2013

Change the Weather History Date:

Saturday, December 14, 2013

  Actual Average Record
Temperature  
Mean Temperature 43 °F 22 °F  
Max Temperature 51 °F 29 °F 54 °F (1924)
Min Temperature 30 °F 16 °F -13 °F (2016)
Degree Days  
Heating Degree Days 22 43  
Month to date heating degree days 627 573  
Since 1 July heating degree days 2704 2777  
Cooling Degree Days 0 0  
Month to date cooling degree days 0 0  
Year to date cooling degree days 264 147  
Moisture  
Dew Point 31 °F    
Average Humidity 67    
Maximum Humidity 89    
Minimum Humidity 44    
Precipitation  
Precipitation T in 0.05 in 0.31 in (1901)
Month to date precipitation 0.94 0.67  
Year to date precipitation 16.84 16.10  
Snow  
Snow 0.00 in - - ()
Month to date snowfall 12.6  
Year to date snowfall 34.0  
Since 1 July snowfall 23.9  
Snow Depth 6.00 in    
Sea Level Pressure  
Sea Level Pressure 30.31 in    
Wind  
Wind Speed 6 mph (SSW)    
Max Wind Speed 14 mph    
Max Gust Speed 22 mph    
Visibility 10 miles    
Events Rain    
T = Trace of Precipitation, MM = Missing Value Source: NWS Daily Summary

Daily Weather History Graph

Daily Weather History Graph

Search for Another Location

Airport or City:

Trip Planner

Search our weather history database for the weather conditions in past years. The results will help you decide how hot, cold, wet, or windy it might be!

Date:

Astronomy

Dec. 14, 2013 Rise Set
Actual Time 8:20 AM MST 4:42 PM MST
Civil Twilight 7:44 AM MST 5:19 PM MST
Nautical Twilight 7:04 AM MST 5:59 PM MST
Astronomical Twilight 6:26 AM MST 6:37 PM MST
Moon 3:14 PM MST (12/14) 5:37 AM MST (12/14)
Length of Visible Light 9h 35m
Length of Day
8h 21m
Waxing Gibbous, 94% of the Moon is Illuminated
Dec 14
Waxing Gibbous
Dec 17
Full
Dec 25
Last Quarter
Jan 1
New
Jan 7
First Quarter

Hourly Weather History & Observations

Time (MST) Temp. Windchill Dew Point Humidity Pressure Visibility Wind Dir Wind Speed Gust Speed Precip Events Conditions
12:55 AM 36.0 °F - 30.9 °F 82% 30.36 in 10.0 mi Calm Calm - N/A   Overcast
1:55 AM 39.0 °F 34.8 °F 30.9 °F 73% 30.33 in 10.0 mi WSW 5.8 mph - N/A   Overcast
2:55 AM 43.0 °F 39.5 °F 30.9 °F 62% 30.34 in 10.0 mi SW 5.8 mph - N/A   Overcast
3:55 AM 51.1 °F - 30.9 °F 46% 30.33 in 10.0 mi South 8.1 mph - N/A   Overcast
4:55 AM 39.0 °F 34.8 °F 30.0 °F 70% 30.35 in 10.0 mi SW 5.8 mph - N/A   Overcast
5:55 AM 39.0 °F 36.8 °F 30.0 °F 70% 30.35 in 10.0 mi SW 3.5 mph - N/A   Overcast
6:55 AM 39.0 °F 34.8 °F 30.0 °F 70% 30.36 in 10.0 mi WSW 5.8 mph - N/A   Overcast
7:55 AM 37.9 °F 35.5 °F 30.0 °F 73% 30.35 in 10.0 mi West 3.5 mph - N/A   Overcast
8:55 AM 37.0 °F 32.4 °F 28.9 °F 73% 30.36 in 10.0 mi SW 5.8 mph - N/A   Overcast
9:55 AM 37.0 °F 34.5 °F 30.0 °F 76% 30.37 in 10.0 mi SW 3.5 mph - N/A   Overcast
10:55 AM 41.0 °F 36.4 °F 30.0 °F 65% 30.35 in 10.0 mi SSW 6.9 mph - N/A   Overcast
11:55 AM 51.1 °F - 30.9 °F 46% 30.30 in 10.0 mi South 8.1 mph - N/A   Overcast
12:55 PM 48.0 °F - 30.9 °F 52% 30.31 in 10.0 mi South 6.9 mph - N/A   Overcast
1:55 PM 48.0 °F - 30.9 °F 52% 30.30 in 10.0 mi South 5.8 mph - N/A   Overcast
2:55 PM 39.9 °F - 32.0 °F 73% 30.32 in 10.0 mi Calm Calm - 0.00 in Rain Light Rain
3:55 PM 41.0 °F 36.4 °F 30.9 °F 67% 30.30 in 10.0 mi SW 6.9 mph - 0.00 in   Overcast
4:55 PM 35.1 °F 28.6 °F 32.0 °F 89% 30.31 in 10.0 mi South 8.1 mph - N/A   Overcast
5:55 PM 37.9 °F 30.9 °F 32.0 °F 79% 30.30 in 10.0 mi SSE 10.4 mph - N/A   Overcast
6:52 PM 37.4 °F 29.8 °F 32.0 °F 81% 30.21 in 10.0 mi South 11.5 mph - 0.00 in   Overcast
6:55 PM 37.9 °F 30.5 °F 32.0 °F 79% 30.27 in 10.0 mi South 11.5 mph - 0.00 in   Overcast
7:55 PM 37.9 °F 30.9 °F 32.0 °F 79% 30.25 in 10.0 mi South 10.4 mph - 0.00 in   Overcast
8:32 PM 37.4 °F 30.8 °F 32.0 °F 81% 30.20 in 10.0 mi South 9.2 mph - N/A   Overcast
8:55 PM 37.0 °F 31.0 °F 32.0 °F 82% 30.26 in 10.0 mi South 8.1 mph - N/A   Overcast
9:55 PM 37.9 °F 32.1 °F 32.0 °F 79% 30.26 in 10.0 mi SSE 8.1 mph - N/A   Overcast
10:55 PM 37.0 °F 31.6 °F 32.0 °F 82% 30.26 in 10.0 mi South 6.9 mph - N/A   Mostly Cloudy
11:55 PM 30.9 °F 24.3 °F 28.0 °F 89% 30.25 in 10.0 mi SW 6.9 mph - N/A   Clear